Location: Il Ritiro
(43.4167°N, 13.1333°E)
Time: 17:09:11
(UTC+00:00)

Cosmos 332 Rocket - Pass Details

Date: 05 July 2020
Orbit: 682 x 703 km, 74.0° (Epoch: 10 August)

Event Time Altitude Azimuth Distance (km) Brightness Sun altitude
Rises 23:14:05 0° 338° (NNW) 3,054 8.2 -23.9°
Reaches altitude 10° 23:16:23 10° 338° (NNW) 2,134 7.2 -23.9°
Maximum altitude 23:21:12 84° 252° (WSW) 692 3.6 -23.9°
Enters shadow 23:21:31 77° 188° (S) 705 3.6 -23.9°
